Date,TemperatureHighF,TemperatureAvgF,TemperatureLowF,DewpointHighF,DewpointAvgF,DewpointLowF,HumidityHigh,HumidityAvg,HumidityLow,PressureMaxIn,PressureMinIn,WindSpeedMaxMPH,WindSpeedAvgMPH,GustSpeedMaxMPH,PrecipitationSumIn
2013-1-1,51,48,47,45,35,24,85,63,39,30.10,29.92,12,2,13,0.16
2013-1-2,50,45,40,46,40,35,88,83,74,30.19,29.92,4,0,6,0.31
2013-1-3,45,40,31,37,33,25,87,77,62,30.24,30.16,0,0,8,0.04
2013-1-4,49,37,25,30,24,17,85,61,39,30.30,30.19,9,1,15,0.00
2013-1-5,49,36,26,32,22,16,85,57,39,30.39,30.27,5,0,9,0.39
2013-1-6,51,39,32,38,34,30,95,82,56,30.26,30.07,2,0,4,0.01
2013-1-7,54,37,26,36,30,25,95,79,42,30.45,30.18,3,0,7,0.00
2013-1-8,55,40,27,41,34,26,95,82,47,30.48,30.38,2,0,3,0.00
2013-1-9,69,50,33,50,42,32,96,79,47,30.45,30.35,6,0,9,0.00
2013-1-10,66,52,42,47,43,37,96,74,46,30.54,30.41,6,0,9,0.00
2013-1-11,52,48,43,51,43,31,97,84,53,30.45,30.15,2,0,4,0.28
2013-1-12,70,57,51,62,55,51,98,94,75,30.17,30.10,2,0,4,0.00
2013-1-13,76,63,54,62,58,53,98,85,59,30.15,30.04,4,0,7,0.00
2013-1-14,69,63,55,63,60,53,98,89,77,30.16,30.07,5,0,7,0.02
2013-1-15,62,46,44,61,45,43,98,95,92,30.25,30.06,6,0,9,0.01
2013-1-16,50,47,44,50,46,44,98,97,96,30.08,29.97,3,0,3,0.11
2013-1-17,51,47,33,50,46,32,98,97,94,30.13,29.91,11,1,20,1.35
2013-1-18,48,36,27,35,30,22,98,82,38,30.55,30.15,3,0,9,0.30
2013-1-19,54,35,23,34,28,22,96,79,31,30.52,30.17,5,0,8,0.00
2013-1-20,65,45,32,39,33,30,97,69,28,30.16,29.98,10,1,15,0.00
2013-1-21,60,43,27,36,28,16,96,62,25,30.09,29.86,9,1,12,0.00
2013-1-22,44,34,21,25,8,-2,74,37,18,30.30,29.95,5,0,14,0.00
2013-1-23,41,28,16,22,12,3,86,56,26,30.40,30.08,7,1,12,0.00
2013-1-24,37,30,20,26,15,4,85,55,26,30.54,29.97,5,0,11,0.00
2013-1-25,28,24,18,26,16,6,93,74,42,30.55,30.13,3,0,4,0.01
2013-1-26,36,30,25,32,28,23,96,92,80,30.42,30.11,4,0,4,0.06
2013-1-27,41,30,22,30,26,21,96,84,59,30.62,30.41,4,0,5,0.03
2013-1-28,54,42,28,49,36,26,95,82,62,30.52,30.23,9,1,14,0.01
2013-1-29,75,59,46,57,52,44,96,78,50,30.24,30.07,10,2,11,0.00
2013-1-30,73,68,58,64,62,55,93,82,71,30.07,29.37,16,4,25,0.01
2013-1-31,68,48,31,64,31,18,90,56,28,30.02,29.42,16,4,31,0.34
2013-2-1,43,36,24,28,16,3,87,47,22,30.40,29.89,14,2,21,0.00
2013-2-2,45,32,17,35,14,7,85,52,25,30.42,30.04,8,1,14,0.00
2013-2-3,50,42,30,36,30,24,92,66,38,30.03,29.85,9,1,13,0.00
2013-2-4,49,38,25,26,23,18,90,58,31,30.15,29.99,5,0,9,0.00
2013-2-5,62,46,35,37,32,26,92,61,32,30.02,29.87,6,1,10,0.00
2013-2-6,64,44,29,38,30,22,96,65,21,30.30,29.97,6,0,10,0.00
2013-2-7,49,43,36,43,37,33,95,82,67,30.34,30.00,8,1,8,0.21
2013-2-8,56,46,40,46,40,29,96,81,52,30.03,29.80,5,1,17,0.79
2013-2-9,54,40,27,31,24,16,94,61,23,30.36,30.03,8,0,11,0.00
2013-2-10,54,38,24,40,25,19,93,65,26,30.50,30.23,5,0,9,0.01
2013-2-11,64,56,44,60,53,40,97,90,81,30.23,29.91,12,2,15,0.03
2013-2-12,62,54,47,55,36,24,87,54,24,30.08,29.90,6,1,9,0.00
2013-2-13,48,46,44,47,44,38,96,92,73,29.95,29.62,6,0,11,0.22
2013-2-14,52,41,30,38,33,29,97,78,47,30.08,29.83,6,0,9,0.01
2013-2-15,63,43,28,40,32,27,96,72,28,30.10,29.93,6,0,9,0.00
2013-2-16,46,37,31,37,33,29,95,86,63,29.98,29.83,3,0,7,0.27
2013-2-17,39,31,22,29,16,7,93,59,27,30.29,29.91,10,1,21,0.00
2013-2-18,53,33,16,27,18,14,92,62,22,30.43,30.28,6,0,11,0.00
2013-2-19,55,43,29,51,38,25,95,84,56,30.27,29.85,14,1,18,0.10
2013-2-20,55,41,29,36,22,11,97,54,18,30.15,29.95,12,1,16,0.00
2013-2-21,56,40,23,30,22,16,90,52,22,30.28,30.12,7,0,9,0.00
2013-2-22,42,36,32,36,32,21,96,85,43,30.37,30.15,5,0,7,0.25
2013-2-23,44,40,36,43,39,35,97,96,96,30.14,29.81,2,0,4,0.77
2013-2-24,64,49,35,47,41,31,98,78,29,30.04,29.79,7,0,10,0.16
2013-2-25,42,37,30,33,25,20,94,63,45,30.23,30.04,5,0,8,0.00
2013-2-26,58,46,36,57,43,26,98,88,67,30.15,29.56,8,1,16,0.63
2013-2-27,61,50,38,46,40,35,98,74,39,29.78,29.61,11,2,15,0.00
2013-2-28,49,40,30,41,32,27,98,75,44,29.85,29.69,8,0,12,0.00
2013-3-1,50,39,26,34,29,25,95,69,40,29.91,29.83,6,0,10,0.00
2013-3-2,50,40,29,32,27,20,92,63,37,29.92,29.81,4,0,9,0.00
2013-3-3,48,37,28,24,20,16,81,52,33,29.98,29.83,9,1,11,0.00
2013-3-4,52,36,27,26,17,12,83,50,22,30.11,29.98,9,1,13,0.00
2013-3-5,52,41,29,44,35,23,96,81,36,30.09,29.58,6,0,12,0.26
2013-3-6,46,42,37,43,34,28,97,76,56,30.01,29.49,13,2,23,0.00
2013-3-7,51,42,30,32,30,27,93,63,44,30.23,30.01,10,0,13,0.00
2013-3-8,57,42,27,34,27,22,94,59,29,30.28,30.14,10,1,15,0.00
2013-3-9,65,45,29,37,30,25,93,61,24,30.33,30.23,4,0,7,0.00
2013-3-10,68,48,29,38,28,17,95,57,14,30.33,30.21,6,0,10,0.00
2013-3-11,70,55,35,52,44,31,91,69,46,30.25,29.95,9,2,15,0.00
2013-3-12,72,62,51,62,55,35,94,77,46,29.95,29.74,13,2,16,0.32
2013-3-13,58,47,32,38,28,18,93,53,25,30.12,29.93,15,1,20,0.00
2013-3-14,55,40,28,29,20,15,81,48,22,30.24,30.09,11,1,13,0.00
2013-3-15,63,45,25,38,28,19,91,57,28,30.19,29.90,10,2,16,0.00
2013-3-16,80,62,42,52,43,34,88,55,30,29.90,29.64,13,2,23,0.00
2013-3-17,58,51,40,53,45,38,96,81,65,30.19,29.82,6,1,13,0.00
2013-3-18,43,41,38,42,39,36,97,95,93,30.20,29.88,3,0,8,0.27
2013-3-19,70,52,41,48,34,12,97,63,17,30.01,29.82,8,1,14,0.01
2013-3-20,57,45,33,30,20,8,85,42,17,30.11,29.79,12,1,12,0.00
2013-3-21,46,39,32,34,20,9,84,49,27,29.97,29.73,10,1,14,0.00
2013-3-22,54,37,22,28,16,10,82,48,19,30.09,29.96,8,1,15,0.00
2013-3-23,58,43,31,36,28,18,89,61,27,30.06,29.91,2,0,6,0.00
2013-3-24,41,38,32,38,35,29,95,89,72,29.94,29.57,6,1,12,0.58
2013-3-25,49,41,35,38,31,23,96,72,38,29.81,29.55,16,2,21,0.01
2013-3-26,51,43,31,30,27,23,88,54,40,30.10,29.80,5,1,12,0.00
2013-3-27,54,42,28,30,25,20,93,55,29,30.22,30.10,11,1,17,0.00
2013-3-28,58,43,27,30,25,22,93,56,24,30.29,30.14,9,1,17,0.00
2013-3-29,62,45,27,35,27,23,92,56,24,30.33,30.18,9,1,14,0.00
2013-3-30,68,50,34,44,34,25,91,62,24,30.25,30.08,6,0,8,0.00
2013-3-31,69,57,48,56,50,43,95,80,61,30.10,29.80,10,1,17,0.41
2013-4-1,75,62,53,55,46,35,98,63,27,29.96,29.79,10,1,17,0.01
2013-4-2,62,49,34,36,29,21,89,50,21,30.16,29.97,10,1,12,0.00
2013-4-3,62,49,38,36,25,16,85,43,19,30.30,30.13,7,0,9,0.00
2013-4-4,49,43,40,41,33,23,95,69,43,30.37,29.92,7,1,11,0.63
2013-4-5,66,48,40,50,43,38,96,83,46,30.01,29.86,6,0,9,0.05
2013-4-6,66,52,37,42,33,24,97,54,24,30.29,30.01,7,1,9,0.00
2013-4-7,74,55,33,49,38,31,94,59,31,30.29,30.11,9,1,15,0.00
2013-4-8,80,65,48,57,51,47,96,65,37,30.17,30.04,13,2,15,0.00
2013-4-9,87,71,53,60,56,52,95,62,33,30.17,30.04,11,1,11,0.00
2013-4-10,89,75,61,62,58,55,89,59,33,30.08,29.92,12,2,16,0.00
2013-4-11,83,76,64,66,61,57,88,62,42,29.99,29.79,10,3,15,0.00
2013-4-12,83,74,66,69,64,45,93,73,44,29.81,29.59,10,3,17,0.51
2013-4-13,77,65,52,49,42,36,83,45,24,29.99,29.74,10,1,16,0.00
2013-4-14,82,64,45,52,45,34,97,57,19,30.10,30.00,5,0,9,0.00
2013-4-15,74,66,60,59,56,51,86,70,56,30.21,30.02,7,1,10,0.00
2013-4-16,78,64,55,62,58,53,97,81,43,30.30,30.19,3,0,5,0.00
2013-4-17,83,69,54,65,60,54,98,76,49,30.23,30.09,6,1,9,0.00
2013-4-18,82,70,59,64,60,56,96,72,44,30.19,30.03,8,1,14,0.00
2013-4-19,84,73,66,68,65,61,95,79,55,30.04,29.71,13,3,31,0.24
2013-4-20,67,57,44,65,42,31,95,62,30,30.27,29.81,9,1,14,0.00
2013-4-21,61,51,39,42,39,37,97,67,42,30.49,30.27,7,1,10,0.00
2013-4-22,62,49,37,47,40,34,90,71,47,30.49,30.27,4,1,10,0.00
2013-4-23,70,55,48,52,47,44,95,76,48,30.27,30.12,4,0,7,0.00
2013-4-24,79,63,44,56,51,43,98,71,41,30.16,29.96,9,2,15,0.00
2013-4-25,75,62,50,57,48,39,93,62,32,30.27,30.00,6,0,9,0.00
2013-4-26,75,58,46,51,43,31,97,65,21,30.42,30.27,8,0,8,0.00
2013-4-27,75,62,49,53,46,40,89,59,29,30.38,30.25,4,0,8,0.00
2013-4-28,63,59,55,56,50,41,96,73,53,30.27,30.10,3,0,6,0.47
2013-4-29,74,62,55,65,60,54,98,92,69,30.11,29.96,4,0,5,1.24
2013-4-30,67,62,56,62,59,55,98,91,75,30.16,29.99,2,0,5,0.01
2013-5-1,62,59,57,59,57,56,96,92,87,30.32,30.15,4,0,7,0.00
2013-5-2,63,59,54,58,56,51,94,89,82,30.33,30.25,3,0,6,0.00
2013-5-3,71,58,49,56,50,44,96,76,45,30.27,30.17,4,0,10,0.00
2013-5-4,65,56,50,54,49,45,90,78,64,30.22,30.08,5,1,9,0.00
2013-5-5,60,56,50,57,51,46,91,86,81,30.10,29.99,4,1,8,0.00
2013-5-6,68,61,56,66,59,55,97,94,87,30.01,29.82,4,1,7,0.78
2013-5-7,74,62,52,60,54,47,98,78,41,29.94,29.85,7,1,9,0.00
2013-5-8,73,61,51,62,55,50,98,84,55,30.01,29.92,9,0,12,0.12
2013-5-9,84,67,55,64,58,54,98,78,39,30.05,29.97,5,0,9,0.01
2013-5-10,87,72,54,66,59,54,98,68,38,30.06,29.93,7,1,10,0.00
2013-5-11,85,74,67,69,63,59,97,71,45,29.95,29.77,7,1,14,0.14
2013-5-12,76,66,52,66,53,38,96,65,29,30.02,29.77,4,0,11,0.00
2013-5-13,68,57,44,46,40,31,92,58,26,30.18,30.02,6,0,10,0.00
2013-5-14,72,55,38,51,40,32,97,64,25,30.26,30.08,6,0,8,0.00
2013-5-15,89,71,51,64,55,45,88,60,35,30.09,29.88,10,2,12,0.00
2013-5-16,86,75,60,65,60,55,96,64,38,29.96,29.88,6,1,12,0.00
2013-5-17,91,74,59,69,62,58,97,71,35,30.07,29.96,4,0,7,0.00
2013-5-18,79,71,63,71,66,62,96,85,69,30.15,30.06,3,0,5,0.08
2013-5-19,80,70,66,71,67,64,98,91,65,30.15,30.06,10,1,15,0.98
2013-5-20,75,70,67,72,69,66,97,95,84,30.11,30.02,7,1,14,1.50
2013-5-21,85,74,69,74,69,68,97,87,63,30.04,29.94,5,1,11,0.00
2013-5-22,85,76,70,71,68,66,94,79,53,30.02,29.90,6,1,12,0.00
2013-5-23,83,72,69,70,68,65,96,87,57,29.95,29.81,4,1,7,0.26
2013-5-24,72,65,51,68,55,38,97,72,35,30.17,29.79,8,0,18,0.00
2013-5-25,78,57,40,52,43,36,97,65,25,30.27,30.12,7,0,11,0.00
2013-5-26,78,59,44,56,47,40,98,70,29,30.28,30.17,4,0,7,0.00
2013-5-27,82,64,47,59,51,46,98,68,32,30.28,30.15,7,1,9,0.00
2013-5-28,86,72,57,67,61,54,96,71,51,30.25,30.13,9,1,12,0.00
2013-5-29,86,75,61,67,63,59,97,70,47,30.23,30.15,8,1,13,0.00
2013-5-30,89,75,61,69,64,59,97,71,37,30.26,30.16,6,1,9,0.00
2013-5-31,89,77,64,70,67,63,98,72,44,30.21,30.08,7,1,11,0.00
2013-6-1,90,79,68,69,67,64,95,70,44,30.14,30.01,8,1,11,0.00
2013-6-2,88,78,69,70,67,64,92,70,44,30.05,29.89,9,2,13,0.00
2013-6-3,84,75,67,75,71,66,96,87,66,29.95,29.82,5,1,9,0.09
2013-6-4,82,72,64,67,64,60,98,78,51,30.09,29.92,4,0,5,0.00
2013-6-5,84,71,60,65,60,56,97,72,39,30.14,30.01,6,0,8,0.00
2013-6-6,75,71,65,73,67,58,97,88,68,30.05,29.82,5,0,10,0.99
2013-6-7,79,72,69,76,71,68,98,96,88,29.85,29.43,5,0,11,2.24
2013-6-8,86,74,68,72,70,66,98,87,59,30.08,29.81,7,1,11,0.04
2013-6-9,88,76,66,75,70,65,99,83,57,30.15,30.04,12,1,12,0.20
2013-6-10,83,75,72,77,72,70,96,91,75,30.10,29.89,8,2,12,0.78
2013-6-11,87,76,68,71,68,64,95,78,49,29.94,29.87,7,1,12,0.00
2013-6-12,90,77,63,77,69,62,98,79,54,29.96,29.85,7,1,11,0.00
2013-6-13,96,84,69,77,72,62,97,71,39,29.85,29.57,13,2,22,0.13
2013-6-14,81,71,60,67,60,56,96,72,44,30.00,29.70,4,0,8,0.00
2013-6-15,86,71,56,66,60,55,98,73,41,30.11,30.00,6,1,9,0.00
2013-6-16,88,76,61,70,64,55,91,66,51,30.12,29.99,8,2,15,0.00
2013-6-17,88,78,72,73,69,65,85,73,57,30.03,29.91,6,1,8,0.00
2013-6-18,84,76,71,74,71,68,97,86,67,29.95,29.72,6,1,15,0.25
2013-6-19,81,72,66,70,67,65,98,84,64,30.11,29.85,2,0,8,0.00
2013-6-20,84,72,63,66,63,57,97,76,49,30.24,30.11,3,0,5,0.00
2013-6-21,85,70,54,68,60,53,97,73,42,30.25,30.18,2,0,4,0.00
2013-6-22,81,73,69,73,70,68,97,90,71,30.21,30.10,3,0,8,0.13
2013-6-23,86,76,68,76,72,67,99,86,65,30.20,30.11,6,0,7,0.01
2013-6-24,86,78,73,77,73,71,95,84,68,30.19,30.07,7,1,12,0.06
2013-6-25,88,77,70,77,72,69,96,86,65,30.12,29.99,12,1,15,0.18
2013-6-26,92,78,69,76,71,67,96,82,50,30.02,29.87,7,1,10,0.43
2013-6-27,90,78,69,76,72,67,97,84,60,29.91,29.70,7,2,12,0.00
2013-6-28,92,79,72,75,72,69,96,81,52,29.74,29.56,7,2,12,1.20
2013-6-29,87,77,69,76,72,68,98,85,63,29.72,29.59,5,1,11,0.81
2013-6-30,87,77,71,77,73,70,96,88,68,29.86,29.71,9,1,11,0.45
2013-7-1,83,76,71,76,73,69,98,91,75,29.99,29.83,8,1,13,1.02
2013-7-2,80,74,72,74,72,70,98,94,84,30.18,29.99,5,1,12,0.76
2013-7-3,86,78,73,77,75,72,98,91,70,30.24,30.15,5,1,10,0.58
2013-7-4,91,80,73,77,74,70,98,82,53,30.27,30.18,8,1,10,0.00
2013-7-5,91,80,71,77,73,70,98,81,55,30.27,30.15,5,1,8,0.00
2013-7-6,89,80,73,77,73,71,96,82,60,30.24,30.11,8,1,8,0.00
2013-7-7,90,80,70,76,72,68,97,80,57,30.18,30.05,7,1,10,0.00
2013-7-8,87,78,73,78,74,71,97,87,67,30.16,30.07,6,1,10,0.71
2013-7-9,88,77,71,79,74,70,98,91,67,30.15,30.06,6,0,10,0.07
2013-7-10,89,80,74,77,75,71,97,84,63,30.10,29.94,7,1,13,0.00
2013-7-11,83,76,73,75,73,71,98,90,76,29.98,29.87,4,1,9,0.51
2013-7-12,77,74,71,73,72,70,98,93,84,30.02,29.86,3,0,6,0.13
2013-7-13,80,75,71,78,73,70,97,94,85,30.18,30.00,2,0,8,0.94
2013-7-14,88,79,71,77,74,70,99,86,63,30.29,30.18,4,0,6,0.00
2013-7-15,92,78,68,77,72,67,99,83,50,30.31,30.23,1,0,3,0.00
2013-7-16,95,80,68,82,74,67,99,84,51,30.26,30.16,4,0,6,0.00
2013-7-17,96,84,74,80,76,72,98,79,49,30.21,30.09,3,0,3,0.00
2013-7-18,96,83,74,82,76,73,98,83,51,30.13,30.02,3,0,6,0.00
2013-7-19,92,83,74,78,75,71,98,79,58,30.08,29.96,5,1,9,0.00
2013-7-20,90,81,77,77,74,73,91,80,62,30.02,29.90,8,2,10,0.00
2013-7-21,90,79,74,79,74,71,97,85,63,29.98,29.88,5,1,7,0.65
2013-7-22,89,79,72,77,74,71,99,86,64,29.94,29.80,5,1,9,0.01
2013-7-23,93,81,74,77,74,72,96,79,55,29.83,29.70,8,1,11,0.00
2013-7-24,97,79,70,75,72,66,99,80,47,29.84,29.71,7,0,28,0.00
2013-7-25,83,74,67,72,69,66,96,85,66,30.02,29.80,4,0,5,0.00
2013-7-26,88,73,61,72,65,60,98,79,47,30.10,30.01,2,0,5,0.00
2013-7-27,88,74,66,75,69,65,99,87,53,30.05,29.93,5,0,8,0.05
2013-7-28,88,78,70,76,72,69,99,85,58,29.99,29.91,6,1,10,0.00
2013-7-29,91,78,71,74,70,66,97,78,48,30.14,29.98,3,0,9,0.01
2013-7-30,90,74,62,75,68,61,98,81,46,30.21,30.12,3,0,4,0.00
2013-7-31,83,75,71,75,72,69,97,90,68,30.14,29.99,5,0,10,0.14
2013-8-1,84,75,71,77,72,70,98,91,73,30.01,29.85,5,0,13,0.53
2013-8-2,93,77,67,76,71,67,99,83,51,30.00,29.89,4,0,6,0.03
2013-8-3,90,78,71,78,74,70,98,88,59,30.00,29.89,6,1,9,0.05
2013-8-4,86,75,65,73,68,63,99,83,49,30.02,29.87,2,0,4,0.00
2013-8-5,84,73,61,71,64,59,98,77,47,30.09,30.00,4,0,6,0.00
2013-8-6,84,75,67,71,68,64,96,79,58,30.05,29.99,5,1,11,0.06
2013-8-7,89,77,66,74,69,65,98,80,49,30.10,30.01,6,1,9,0.00
2013-8-8,91,79,69,77,72,68,98,80,51,30.06,29.98,3,0,9,0.00
2013-8-9,93,83,75,77,75,73,96,78,56,30.03,29.96,9,2,13,0.00
2013-8-10,96,82,74,81,76,71,98,83,54,30.08,29.98,8,1,16,0.39
2013-8-11,94,80,72,81,75,71,99,86,54,30.10,29.99,4,0,6,0.00
2013-8-12,96,81,72,77,74,69,99,81,44,30.03,29.91,5,0,6,0.00
2013-8-13,90,78,72,80,75,71,98,89,64,29.97,29.75,9,1,20,1.50
2013-8-14,77,72,61,74,67,60,98,86,66,30.08,29.80,2,0,4,0.00
2013-8-15,78,65,59,65,60,58,98,84,49,30.16,30.07,2,0,4,0.00
2013-8-16,72,66,59,64,62,58,98,87,69,30.17,30.09,1,0,2,0.00
2013-8-17,73,68,63,72,66,62,98,94,89,30.17,30.10,1,0,3,0.09
2013-8-18,85,74,68,74,70,66,99,87,66,30.19,30.11,7,1,9,0.00
2013-8-19,76,70,67,72,69,66,98,95,86,30.19,30.08,3,0,6,1.75
2013-8-20,85,75,67,76,71,67,99,90,69,30.18,30.10,1,0,4,0.00
2013-8-21,87,76,70,80,73,69,99,92,71,30.22,30.09,6,0,11,0.94
2013-8-22,94,79,69,78,72,68,99,82,51,30.14,29.97,4,0,7,0.00
2013-8-23,89,78,69,76,72,68,99,82,59,30.05,29.90,7,0,8,0.00
2013-8-24,84,73,64,68,64,60,96,76,47,30.29,30.05,3,0,5,0.00
2013-8-25,82,69,59,66,61,57,99,79,43,30.39,30.28,4,0,6,0.00
2013-8-26,87,69,53,68,60,52,99,78,39,30.32,30.10,3,0,5,0.00
2013-8-27,91,73,59,76,67,58,99,84,50,30.12,29.95,4,0,6,0.00
2013-8-28,84,76,68,77,73,67,99,91,75,29.97,29.85,3,0,5,0.00
2013-8-29,89,80,71,77,74,69,95,82,63,30.00,29.82,4,0,6,0.00
2013-8-30,91,76,66,74,68,62,98,81,40,30.06,29.93,4,0,4,0.00
2013-8-31,90,77,66,75,70,65,99,82,55,29.97,29.85,7,1,9,0.00
2013-9-1,91,78,72,79,74,71,98,88,61,29.89,29.76,11,1,18,1.39
2013-9-2,91,78,70,79,74,69,99,87,59,29.87,29.78,6,1,7,0.04
2013-9-3,90,78,71,78,73,70,99,88,62,29.92,29.79,6,0,7,0.00
2013-9-4,88,76,69,76,70,66,99,84,59,30.08,29.92,2,0,4,0.00
2013-9-5,92,76,64,72,67,60,99,78,37,30.08,30.01,5,0,7,0.00
2013-9-6,86,72,63,69,63,59,98,78,44,30.16,30.06,2,0,4,0.00
2013-9-7,87,70,58,70,63,57,99,80,46,30.13,29.97,4,0,5,0.00
2013-9-8,90,74,61,75,66,61,99,80,43,29.98,29.89,3,0,5,0.00
2013-9-9,89,75,64,74,69,63,99,83,53,30.14,29.98,2,0,5,0.00
2013-9-10,93,77,65,76,70,65,99,81,48,30.22,30.13,3,0,6,0.00
2013-9-11,91,77,66,73,69,65,99,80,47,30.20,30.06,6,0,8,0.00
2013-9-12,92,78,68,75,71,66,98,79,54,30.07,29.79,6,1,8,0.00
2013-9-13,88,75,63,70,66,60,98,77,44,29.87,29.73,4,0,9,0.00
2013-9-14,80,66,57,61,54,49,96,69,40,30.14,29.87,3,0,5,0.00
2013-9-15,83,66,51,66,58,50,98,79,44,30.24,30.11,4,0,5,0.00
2013-9-16,89,72,61,73,64,60,98,78,42,30.18,30.02,6,0,8,0.00
2013-9-17,79,67,58,62,56,52,91,71,41,30.31,30.18,5,0,6,0.00
2013-9-18,75,60,49,60,53,48,98,80,47,30.30,30.17,3,0,4,0.00
2013-9-19,79,64,52,66,58,51,98,83,50,30.19,30.08,4,0,5,0.00
2013-9-20,71,66,62,67,64,61,98,92,83,30.10,29.96,4,0,7,0.54
2013-9-21,77,70,66,72,68,65,98,93,81,29.97,29.72,5,1,9,0.53
2013-9-22,80,69,58,69,63,57,98,83,51,29.89,29.70,4,0,6,1.58
2013-9-23,76,63,54,60,55,52,98,78,49,30.07,29.89,4,0,9,0.00
2013-9-24,78,62,50,64,56,49,98,84,51,30.10,29.95,2,0,5,0.00
2013-9-25,76,62,50,65,58,50,99,87,58,29.96,29.86,2,0,4,0.00
2013-9-26,79,66,57,63,59,52,98,80,43,30.03,29.86,3,0,4,0.00
2013-9-27,75,62,52,62,57,52,99,85,55,30.18,30.03,4,0,5,0.00
2013-9-28,76,61,49,60,55,49,99,82,55,30.25,30.15,3,0,5,0.00
2013-9-29,77,62,49,62,56,48,99,82,49,30.17,30.02,2,0,4,0.00
2013-9-30,78,62,51,63,56,50,99,85,46,30.09,29.99,2,0,6,0.00
2013-10-1,85,64,50,69,58,49,99,84,44,30.12,30.01,4,0,6,0.00
2013-10-2,87,69,55,68,61,54,99,79,42,30.12,30.03,4,0,5,0.00
2013-10-3,86,70,57,70,62,56,99,81,47,30.12,30.04,4,0,8,0.00
2013-10-4,89,72,61,72,65,60,99,81,45,30.12,30.03,5,0,7,0.00
2013-10-5,92,74,60,72,65,59,99,80,41,30.11,30.02,3,0,6,0.00
2013-10-6,85,72,62,74,68,61,99,89,63,30.07,29.94,5,0,7,0.01
2013-10-7,77,71,65,73,70,63,98,95,88,29.98,29.85,5,1,12,0.37
2013-10-8,65,60,58,63,52,48,93,75,65,30.19,29.97,3,0,7,0.00
2013-10-9,63,59,55,57,54,52,97,85,77,30.17,30.06,4,0,6,0.03
2013-10-10,60,57,54,59,56,53,98,97,94,30.06,29.92,2,0,4,0.29
2013-10-11,66,62,59,62,60,58,98,94,88,29.96,29.89,1,0,3,0.01
2013-10-12,69,65,62,66,63,60,96,94,88,30.07,29.94,2,0,4,0.00
2013-10-13,68,65,63,66,63,62,98,95,91,30.19,30.06,2,0,4,0.09
2013-10-14,67,63,57,63,61,57,98,94,86,30.23,30.17,2,0,4,0.03
2013-10-15,71,63,52,64,59,52,99,89,70,30.19,30.05,3,0,4,0.00
2013-10-16,71,66,61,65,63,60,98,91,78,30.05,29.95,1,0,3,0.00
2013-10-17,77,68,59,67,63,58,99,86,66,29.96,29.83,8,1,11,0.00
2013-10-18,70,64,56,66,56,49,97,77,53,30.03,29.87,3,0,4,0.00
2013-10-19,70,64,60,66,62,58,97,93,87,29.97,29.81,5,0,6,0.01
2013-10-20,68,56,43,60,48,42,98,78,43,30.12,29.89,4,0,6,0.00
2013-10-21,70,52,37,54,46,36,99,82,45,30.17,30.01,3,0,8,0.00
2013-10-22,65,56,49,60,54,48,98,93,81,30.01,29.81,2,0,5,0.00
2013-10-23,68,59,48,59,50,36,99,74,37,29.99,29.68,10,1,17,0.00
2013-10-24,61,48,34,42,37,33,97,70,38,30.18,29.99,7,0,11,0.00
2013-10-25,58,46,32,42,35,30,95,71,34,30.37,30.18,7,0,9,0.00
2013-10-26,60,42,28,41,33,27,98,75,34,30.36,30.08,6,1,11,0.00
2013-10-27,72,52,39,50,43,38,97,75,38,30.14,30.04,6,0,7,0.00
2013-10-28,71,54,41,58,49,40,98,85,52,30.26,30.13,6,0,6,0.00
2013-10-29,76,58,46,59,53,45,99,85,54,30.33,30.24,3,0,5,0.00
2013-10-30,75,61,51,61,56,50,98,87,57,30.30,30.16,5,0,7,0.00
2013-10-31,76,64,53,64,58,52,99,81,55,30.19,29.93,7,1,12,0.00
2013-11-1,74,69,64,68,66,61,97,89,75,29.93,29.67,10,2,14,1.27
2013-11-2,73,63,54,61,53,46,98,75,40,29.92,29.68,6,0,9,0.00
2013-11-3,65,50,38,48,41,38,98,75,39,30.37,29.92,4,0,9,0.00
2013-11-4,57,44,34,39,35,33,97,74,40,30.56,30.37,4,0,5,0.00
2013-11-5,58,49,39,51,44,35,94,82,70,30.54,30.43,2,0,4,0.00
2013-11-6,73,57,44,59,52,43,98,85,56,30.43,30.12,3,0,4,0.00
2013-11-7,70,61,47,64,54,34,99,81,51,30.12,29.91,7,1,10,0.08
2013-11-8,59,45,31,36,32,27,95,65,30,30.33,30.09,7,0,11,0.00
2013-11-9,59,43,29,41,33,28,98,75,34,30.39,30.19,7,1,10,0.00
2013-11-10,73,51,34,44,37,29,98,66,26,30.24,30.05,8,1,19,0.00
2013-11-11,61,44,30,39,32,28,95,68,31,30.36,30.14,3,0,4,0.00
2013-11-12,63,41,32,42,33,20,98,74,37,30.42,30.06,6,0,8,0.00
2013-11-13,47,35,24,25,20,17,91,58,30,30.53,30.42,5,0,7,0.00
2013-11-14,58,37,21,30,24,20,96,67,24,30.48,30.34,8,1,11,0.00
2013-11-15,64,45,26,50,37,24,95,77,42,30.37,30.22,3,0,5,0.00
2013-11-16,69,55,48,60,53,47,98,92,74,30.27,30.21,4,0,6,0.01
2013-11-17,72,61,51,66,58,50,99,90,68,30.22,29.90,5,0,8,0.08
2013-11-18,78,67,51,68,55,32,97,67,38,29.95,29.78,6,1,9,0.00
2013-11-19,58,49,37,35,30,27,86,51,33,30.32,29.95,4,0,5,0.00
2013-11-20,54,45,38,40,34,29,85,66,48,30.45,30.32,6,0,7,0.00
2013-11-21,63,50,42,50,44,38,95,80,61,30.51,30.38,3,0,4,0.00
2013-11-22,71,60,46,61,55,45,98,85,68,30.40,30.08,5,1,9,0.02
2013-11-23,63,56,42,61,45,22,98,69,36,30.17,30.02,2,0,6,0.03
2013-11-24,42,34,22,25,12,5,78,44,24,30.55,30.17,6,0,11,0.00
2013-11-25,44,30,17,24,15,8,90,58,24,30.61,30.39,3,0,6,0.00
2013-11-26,67,46,34,66,39,21,98,77,53,30.41,29.55,6,1,11,0.54
2013-11-27,67,42,31,66,38,20,98,89,65,30.16,29.49,9,0,15,0.83
2013-11-28,45,32,22,29,22,17,94,69,39,30.50,30.16,4,0,7,0.00
2013-11-29,52,34,22,32,26,21,96,75,37,30.66,30.49,3,0,5,0.00
2013-11-30,51,36,26,36,30,24,96,79,54,30.66,30.38,3,0,6,0.00
2013-12-1,60,40,26,40,32,25,97,78,33,30.38,30.03,3,0,6,0.00
2013-12-2,60,44,34,47,39,33,97,84,40,30.03,29.83,2,0,4,0.00
2013-12-3,59,45,30,48,40,29,98,84,60,30.01,29.88,5,0,7,0.00
2013-12-4,66,56,50,59,53,48,97,89,75,30.10,29.99,3,0,4,0.00
2013-12-5,68,61,50,64,60,49,98,94,86,30.14,30.04,4,1,8,0.01
2013-12-6,79,71,65,66,64,63,93,79,61,30.08,29.96,12,2,22,0.00
2013-12-7,70,50,42,66,45,32,95,84,67,30.46,29.98,6,1,8,0.15
2013-12-8,42,36,33,34,32,30,97,88,67,30.47,30.30,4,0,8,0.07
2013-12-9,46,41,34,46,40,34,98,98,97,30.29,30.07,2,0,3,0.22
2013-12-10,47,43,29,46,42,28,98,95,81,30.33,29.92,3,0,5,0.63
2013-12-11,50,35,23,34,27,22,98,78,35,30.47,30.30,6,0,7,0.00
2013-12-12,47,33,24,28,23,13,97,71,26,30.43,30.28,5,0,8,0.00
2013-12-13,51,34,20,31,24,18,96,71,28,30.41,30.28,5,1,9,0.00
2013-12-14,48,40,34,42,36,30,97,86,51,30.32,29.78,5,0,7,0.91
2013-12-15,55,44,30,45,38,29,98,82,49,30.08,29.69,5,1,10,0.03
2013-12-16,55,38,26,39,32,25,98,81,43,30.19,30.07,5,0,8,0.00
2013-12-17,62,45,30,41,36,29,98,73,41,30.13,29.88,14,1,18,0.00
2013-12-18,50,39,27,39,27,20,92,66,32,30.30,30.03,8,0,13,3.15
2013-12-19,62,42,25,34,27,23,95,62,24,30.34,30.22,9,1,13,0.00
2013-12-20,68,53,38,55,45,32,94,75,51,30.26,30.11,7,1,14,0.00
2013-12-21,74,60,45,66,56,44,98,87,65,30.16,30.05,9,1,14,0.00
2013-12-22,79,71,64,68,66,62,97,84,62,30.11,30.02,11,2,20,0.16
2013-12-23,68,61,47,67,60,45,98,95,87,30.14,29.99,7,1,12,1.52
2013-12-24,48,42,30,45,32,16,95,69,48,30.46,30.12,10,0,12,0.00
2013-12-25,40,29,22,24,17,13,91,63,34,30.57,30.42,3,0,5,0.00
2013-12-26,51,35,23,37,30,21,95,84,43,30.42,30.25,5,0,5,0.05
2013-12-27,54,34,23,35,26,22,96,77,30,30.47,30.37,3,0,4,0.00
2013-12-28,60,38,23,40,30,22,96,77,28,30.42,30.17,3,0,6,0.00
2013-12-29,66,50,41,64,49,39,99,94,76,30.17,29.67,10,1,17,2.03
2013-12-30,55,44,34,46,40,33,99,88,63,30.14,29.93,2,0,5,0.00
2013-12-31,52,42,30,39,32,24,94,73,34,30.36,30.12,8,1,15,0.00
2014-1-1,52,38,29,35,29,24,96,75,33,30.44,30.16,4,0,7,0.00
2014-1-2,48,43,37,46,40,34,97,90,73,30.16,29.57,3,0,8,0.36